Regional Weather Roundup
Issued by NWS Sterling, VA

Home | Current Version | Previous Version | Text Only | Print | Product List | Glossary Off
Versions: 1 2 3 4 5 6 7 8 9 10 11 12 13 14 15 16 17 18 19 20 21 22 23 24 25 26 27 28 29 30 31 32 33 34 35 36 37 38 39 40 41 42 43 44 45 46 47 48 49 50

000
ASUS41 KLWX 271310
RWRLWX

REGIONAL WEATHER ROUNDUP
NATIONAL WEATHER SERVICE BALTIMORE MD/WASHINGTON DC
900 AM EDT WED AUG 27 2014

Note: "FAIR" indicates few or no clouds below 12,000 feet
with no significant weather and/or obstructions to visibility.
 TC=TEMPERATURE CELSIUS

 * =Non NWS site. Station does not report precipitation (e.g. rain,
    snow, etc.), thunder, or fog.

DCZ001-MDZ009-015-VAZ040>042-051-053>054-271400-
WASHINGTON METRO
  /KDAA//-FT BELVOIR

CITY           SKY/WX    TMP DP  RH WIND       PRES   REMARKS
WASHINGTON NAT SUNNY     74  67  78 S6        30.10R
DULLES         SUNNY     69  64  84 CALM      30.10R
ANDREWS AFB    SUNNY     73  67  82 VRB2      30.10R
QUANTICO       MOSUNNY   70  66  87 W3        30.11R
COLLEGE PARK*  SUNNY     72  66  83 CALM      30.09R
LEESBURG*      SUNNY     72  68  88 CALM      30.10S
GAITHERSBURG*  SUNNY     70  63  78 NW5       30.13S

$$

MDZ006>007-011-014-271400-
BALTIMORE METRO

CITY           SKY/WX    TMP DP  RH WIND       PRES   REMARKS
BWI AIRPORT    SUNNY     72  65  78 CALM      30.09R
MD SCIENCE CTR   N/A     76  66  71 MISG      30.08S
MARTIN STATE   SUNNY     73  70  88 CALM      30.10R
ANNAPOLIS      SUNNY     75  66  73 SW3       30.08S
FORT MEADE*    SUNNY     66  64  94 CALM      30.11S

$$

MDZ012-015-019>023-271400-
MARYLAND EASTERN SHORE

CITY           SKY/WX    TMP DP  RH WIND       PRES   REMARKS
OCEAN CITY     SUNNY     73  70  90 N6        30.07S
SALISBURY      SUNNY     70  66  88 CALM      30.07F FOG
BAY BRIDGE AP*   N/A     73  68  83 CALM      30.08S
CAMBRIDGE*     SUNNY     72  68  88 CALM      30.07F
EASTON*        SUNNY     73  72  94 CALM      30.12S

$$

MDZ017>025-271400-
SOUTHERN MARYLAND

CITY           SKY/WX    TMP DP  RH WIND       PRES   REMARKS
PATUXENT RIVER MOSUNNY   74  67  78 NW5       30.08S
ST INIGOES     SUNNY     73  66  78 CALM      30.07S
LEONARDTOWN*   SUNNY     72  63  73 CALM      30.10S

$$

MDZ003>005-271400-
NORTH CENTRAL MARYLAND

CITY           SKY/WX    TMP DP  RH WIND       PRES   REMARKS
FREDERICK*     SUNNY     70  68  94 W7        30.12R
HAGERSTOWN APT SUNNY     67  62  84 SE3       30.10R
WESTMINSTER*   NOT AVBL

$$

MDZ501>502-271400-
WESTERN MARYLAND

CITY           SKY/WX    TMP DP  RH WIND       PRES   REMARKS
OAKLAND*       PTSUNNY   64  63  94 W5        30.20S
CUMBERLAND*    SUNNY     70  59  68 CALM      30.16S

$$

VAZ025>031-271400-
SHENANDOAH VALLEY

CITY           SKY/WX    TMP DP  RH WIND       PRES   REMARKS
WINCHESTER*    SUNNY     68  61  77 SW5       30.11S
STAUNTON*      SUNNY     61  58  90 CALM      30.17R

$$

WVZ021-048>050-054>055-271400-
EASTERN WEST VIRGINIA PANHANDLE

CITY           SKY/WX    TMP DP  RH WIND       PRES   REMARKS
MARTINSBURG    SUNNY     67  60  78 S3        30.11S
PETERSBURG*    NOT AVBL

$$

VAZ036>039-050-271400-
CENTRAL FOOTHILLS

CITY           SKY/WX    TMP DP  RH WIND       PRES   REMARKS
CHARLOTTESVILL SUNNY     67  62  84 CALM      30.12R
ORANGE*        SUNNY     70  63  78 CALM      30.12S

$$

VAZ055>057-271400-
NORTH AND CENTRAL PIEDMONT

CITY           SKY/WX    TMP DP  RH WIND       PRES   REMARKS
FREDERICKSBRG* SUNNY     69  66  91 CALM      30.09S
STAFFORD*      SUNNY     67  67 100 CALM      30.14S

$$

NCZ024-NYZ072-PAZ021-071-VAZ022-071-271400-
OTHER REGIONAL OBSERVATIONS

CITY           SKY/WX    TMP DP  RH WIND       PRES   REMARKS
NEW YORK CITY  SUNNY     76  62  62 CALM      30.07S
PHILADELPHIA   MOSUNNY   73  64  73 SW6       30.07S
PITTSBURGH     MOSUNNY   71  66  84 S3        30.11S
ROANOKE        MOSUNNY   65  59  81 W3        30.17S
RICHMOND       MOSUNNY   74  65  73 NW3       30.09S
RALEIGH        MOSUNNY   68  62  81 VRB5      30.09S

$$

ANZ530>537-271400-
MARINE OBSERVATIONS

STATION/POSITION TIME  TEMP    WIND        PRES
                       AIR SEA DIR/SP/G
                 (UTC) (F)     (DEG/KT/KT) (MB)
THOMAS PT LIGHT  1300   71 78  250/  6/  7 1019.6R
BALT KEY BRIDGE  1300   78     160/  1/  2 1018.5R
COVE POINT       1300   74     280/  3/  4 1018.5S
LEWISETTA        1300   72 78  330/  5/  7 1018.2F
SOLOMONS ISLAND  1300      79                N/A
PINEY POINT      1300          340/  5/  6   N/A

$$



USA.gov is the U.S. government's official web portal to all federal, state and local government web resources and services.